• In Hungary
  • List of Countries
  • For 7 days
  • Water Temperature
  • Satellite Maps
  • Weather Map
  • News
  • Weather Widgets
  • user-avatar
    Login

    Hourly Weather Landek

    Today, 23 September, Sunday

    Time Temperature Precipitation Wind Pressure Humidity
    00:00 +12°C° 0.1 mm 3 mps 741 mmHg 67%
    01:00 +12°C° 0.1 mm 3 mps 741 mmHg 69%
    02:00 +12°C° 0.1 mm 3 mps 741 mmHg 71%
    03:00 +11°C° 0.1 mm 3 mps 741 mmHg 73%
    04:00 +11°C° 0.1 mm 3 mps 741 mmHg 75%
    05:00 +11°C° 0 mm 3 mps 741 mmHg 74%
    06:00 +12°C° 0 mm 3 mps 740 mmHg 73%
    07:00 +12°C° 0 mm 3 mps 740 mmHg 72%
    08:00 +13°C° 0 mm 4 mps 740 mmHg 67%
    09:00 +14°C° 0 mm 4 mps 740 mmHg 63%
    10:00 +15°C° 0 mm 5 mps 740 mmHg 58%
    11:00 +15°C° 0 mm 5 mps 740 mmHg 59%
    12:00 +15°C° 0 mm 5 mps 739 mmHg 60%
    13:00 +16°C° 0 mm 5 mps 739 mmHg 61%
    14:00 +15°C° 0.3 mm 5 mps 738 mmHg 67%
    15:00 +14°C° 0.3 mm 4 mps 737 mmHg 73%
    16:00 +13°C° 0.3 mm 4 mps 736 mmHg 80%
    17:00 +13°C° 0.2 mm 4 mps 735 mmHg 79%
    18:00 +13°C° 0.2 mm 5 mps 734 mmHg 79%
    19:00 +14°C° 0.2 mm 5 mps 733 mmHg 78%
    20:00 +14°C° 0.3 mm 6 mps 732 mmHg 79%
    21:00 +15°C° 0.3 mm 7 mps 731 mmHg 79%
    22:00 +15°C° 0.3 mm 8 mps 730 mmHg 79%
    23:00 +16°C° 3.2 mm 8 mps 730 mmHg 83%

    Tomorrow, 24 September, Monday

    Time Temperature Precipitation Wind Pressure Humidity
    00:00 +16°C° 3.2 mm 7 mps 730 mmHg 86%
    01:00 +16°C° 3.2 mm 7 mps 730 mmHg 90%
    02:00 +14°C° 1.8 mm 7 mps 732 mmHg 89%
    03:00 +11°C° 1.8 mm 8 mps 733 mmHg 88%
    04:00 +9°C° 1.8 mm 8 mps 735 mmHg 88%
    05:00 +9°C° 0.2 mm 7 mps 736 mmHg 86%
    06:00 +8°C° 0.2 mm 7 mps 737 mmHg 85%
    07:00 +8°C° 0.2 mm 6 mps 738 mmHg 84%
    08:00 +8°C° 0.2 mm 6 mps 739 mmHg 81%
    09:00 +9°C° 0.2 mm 7 mps 740 mmHg 78%
    10:00 +9°C° 0.2 mm 7 mps 741 mmHg 74%
    11:00 +10°C° 0.2 mm 7 mps 742 mmHg 69%
    12:00 +10°C° 0.2 mm 8 mps 742 mmHg 63%
    13:00 +11°C° 0.2 mm 8 mps 742 mmHg 58%
    14:00 +10°C° 0.3 mm 8 mps 743 mmHg 58%
    15:00 +10°C° 0.3 mm 7 mps 743 mmHg 59%
    16:00 +9°C° 0.3 mm 7 mps 743 mmHg 60%
    17:00 +8°C° 0.1 mm 6 mps 744 mmHg 63%
    18:00 +7°C° 0.1 mm 5 mps 744 mmHg 66%
    19:00 +6°C° 0.1 mm 4 mps 744 mmHg 69%
    20:00 +6°C° 0 mm 5 mps 745 mmHg 69%
    21:00 +6°C° 0 mm 5 mps 745 mmHg 69%
    22:00 +5°C° 0 mm 5 mps 746 mmHg 69%
    23:00 +5°C° 0.1 mm 5 mps 746 mmHg 71%

    Day after tomorrow, 25 September, Tuesday

    Time Temperature Precipitation Wind Pressure Humidity
    00:00 +5°C° 0.1 mm 5 mps 746 mmHg 73%
    01:00 +5°C° 0.1 mm 5 mps 747 mmHg 75%
    02:00 +5°C° 0.1 mm 4 mps 747 mmHg 77%
    03:00 +5°C° 0.1 mm 4 mps 748 mmHg 79%
    04:00 +5°C° 0.1 mm 3 mps 748 mmHg 81%
    05:00 +5°C° 0.1 mm 3 mps 749 mmHg 82%
    06:00 +5°C° 0.1 mm 4 mps 749 mmHg 82%
    07:00 +5°C° 0.1 mm 4 mps 750 mmHg 83%
    08:00 +6°C° 0.1 mm 4 mps 751 mmHg 78%
    09:00 +7°C° 0.1 mm 4 mps 751 mmHg 73%
    10:00 +8°C° 0.1 mm 4 mps 751 mmHg 68%
    11:00 +10°C° 0.2 mm 4 mps 752 mmHg 65%
    12:00 +9°C° 0.2 mm 5 mps 752 mmHg 62%
    13:00 +10°C° 0.2 mm 5 mps 752 mmHg 58%
    14:00 +10°C° 0.2 mm 5 mps 752 mmHg 59%
    15:00 +11°C° 0.2 mm 4 mps 752 mmHg 59%
    16:00 +10°C° 0.2 mm 4 mps 752 mmHg 59%
    17:00 +9°C° 0 mm 3 mps 752 mmHg 64%
    18:00 +8°C° 0 mm 2 mps 753 mmHg 68%
    19:00 +7°C° 0 mm 2 mps 753 mmHg 73%
    20:00 +7°C° 0 mm 1 mps 754 mmHg 74%
    21:00 +7°C° 0 mm 1 mps 754 mmHg 76%
    22:00 +6°C° 0 mm 1 mps 754 mmHg 77%
    23:00 +6°C° 0 mm 1 mps 755 mmHg 78%

    26 September, Wednesday

    Time Temperature Precipitation Wind Pressure Humidity
    00:00 +6°C° 0 mm 1 mps 755 mmHg 80%
    01:00 +5°C° 0 mm 1 mps 755 mmHg 81%
    02:00 +5°C° 0 mm 1 mps 755 mmHg 81%
    03:00 +5°C° 0 mm 1 mps 755 mmHg 82%
    04:00 +5°C° 0 mm 1 mps 755 mmHg 83%
    05:00 +5°C° 0 mm 1 mps 755 mmHg 80%
    06:00 +6°C° 0 mm 1 mps 755 mmHg 77%
    07:00 +6°C° 0 mm 1 mps 755 mmHg 74%
    08:00 +7°C° 0 mm 2 mps 755 mmHg 64%
    09:00 +10°C° 0 mm 2 mps 754 mmHg 54%
    10:00 +13°C° 0 mm 2 mps 754 mmHg 44%
    11:00 +12°C° 0 mm 3 mps 754 mmHg 42%
    12:00 +13°C° 0 mm 3 mps 753 mmHg 40%
    13:00 +14°C° 0 mm 4 mps 753 mmHg 39%
    14:00 +14°C° 0 mm 3 mps 752 mmHg 42%
    15:00 +14°C° 0 mm 3 mps 752 mmHg 45%
    16:00 +13°C° 0 mm 3 mps 751 mmHg 49%
    17:00 +12°C° 0 mm 3 mps 751 mmHg 52%
    18:00 +11°C° 0 mm 3 mps 751 mmHg 56%
    19:00 +10°C° 0 mm 3 mps 751 mmHg 60%
    20:00 +10°C° 0 mm 3 mps 751 mmHg 59%
    21:00 +10°C° 0 mm 3 mps 750 mmHg 58%
    22:00 +10°C° 0 mm 3 mps 750 mmHg 57%
    23:00 +10°C° 0 mm 3 mps 750 mmHg 56%

    27 September, Thursday

    Time Temperature Precipitation Wind Pressure Humidity
    00:00 +10°C° 0 mm 3 mps 750 mmHg 55%
    01:00 +10°C° 0 mm 3 mps 750 mmHg 54%
    02:00 +9°C° 0 mm 3 mps 749 mmHg 55%
    03:00 +9°C° 0 mm 3 mps 749 mmHg 56%
    04:00 +8°C° 0 mm 3 mps 749 mmHg 57%
    05:00 +9°C° 0 mm 3 mps 749 mmHg 57%
    06:00 +9°C° 0 mm 3 mps 749 mmHg 56%
    07:00 +9°C° 0 mm 3 mps 749 mmHg 56%
    08:00 +12°C° 0 mm 3 mps 749 mmHg 52%
    09:00 +14°C° 0 mm 3 mps 748 mmHg 47%
    10:00 +17°C° 0 mm 3 mps 748 mmHg 42%
    11:00 +18°C° 0 mm 3 mps 748 mmHg 40%
    12:00 +19°C° 0 mm 3 mps 748 mmHg 38%
    13:00 +20°C° 0 mm 3 mps 747 mmHg 36%
    14:00 +20°C° 0 mm 3 mps 747 mmHg 40%
    15:00 +20°C° 0 mm 2 mps 747 mmHg 43%
    16:00 +19°C° 0 mm 2 mps 747 mmHg 46%
    17:00 +18°C° 0 mm 2 mps 747 mmHg 51%
    18:00 +16°C° 0 mm 2 mps 746 mmHg 56%
    19:00 +14°C° 0 mm 2 mps 746 mmHg 61%
    20:00 +14°C° 0 mm 2 mps 746 mmHg 61%
    21:00 +13°C° 0 mm 2 mps 746 mmHg 62%
    22:00 +13°C° 0 mm 2 mps 746 mmHg 62%
    23:00 +12°C° 0 mm 2 mps 746 mmHg 63%

    28 September, Friday

    Time Temperature Precipitation Wind Pressure Humidity
    00:00 +12°C° 0 mm 2 mps 746 mmHg 63%
    01:00 +12°C° 0 mm 2 mps 745 mmHg 63%
    02:00 +12°C° 0 mm 2 mps 745 mmHg 64%
    03:00 +12°C° 0 mm 2 mps 745 mmHg 64%
    04:00 +10°C° 0 mm 2 mps 744 mmHg 65%
    05:00 +12°C° 0 mm 2 mps 744 mmHg 64%
    06:00 +12°C° 0 mm 2 mps 744 mmHg 63%
    07:00 +13°C° 0 mm 2 mps 744 mmHg 63%
    08:00 +15°C° 0 mm 2 mps 744 mmHg 57%
    09:00 +17°C° 0 mm 3 mps 744 mmHg 51%
    10:00 +19°C° 0 mm 3 mps 743 mmHg 44%
    11:00 +20°C° 0 mm 3 mps 743 mmHg 43%
    12:00 +21°C° 0 mm 3 mps 742 mmHg 41%
    13:00 +22°C° 0 mm 4 mps 742 mmHg 39%
    14:00 +22°C° 0 mm 3 mps 741 mmHg 43%
    15:00 +21°C° 0 mm 3 mps 741 mmHg 46%
    16:00 +21°C° 0 mm 3 mps 740 mmHg 49%
    17:00 +19°C° 0 mm 3 mps 740 mmHg 55%
    18:00 +17°C° 0 mm 2 mps 740 mmHg 60%
    19:00 +15°C° 0 mm 2 mps 740 mmHg 66%
    20:00 +14°C° 0 mm 2 mps 740 mmHg 67%
    21:00 +14°C° 0 mm 2 mps 740 mmHg 67%
    22:00 +13°C° 0 mm 2 mps 740 mmHg 68%
    23:00 +13°C° 0 mm 2 mps 739 mmHg 67%
    Show more